Regional Weather Roundup
Issued by NWS

Home | Current Version | Previous Version | Text Only | Print | Product List | Glossary Off
Versions: 1 2 3 4 5 6 7 8 9 10 11 12 13 14 15 16 17 18 19 20 21 22 23 24 25 26 27 28 29 30 31 32 33 34 35 36 37 38 39

000
ASUS43 KDMX 220107
RWRIA

WEATHER ROUNDUP FOR IOWA
NATIONAL WEATHER SERVICE DES MOINES IA
800 PM CDT TUE OCT 21 2014

NOTE: "FAIR" INDICATES FEW OR NO CLOUDS BELOW 12,000 FEET WITH NO
SIGNIFICANT WEATHER AND/OR OBSTRUCTIONS TO VISIBILITY.

* - THESE STATIONS ARE NOT NWS STATIONS...THUS NOT UNDER NWS
QUALITY CONTROL.  THEY ALSO DO NOT REPORT WEATHER SUCH
AS PRECIPITATION OR FOG.

IAZ001>003-012>014-020>022-031>034-043>046-220200-
   NORTHWEST IOWA

CITY           SKY/WX    TMP DP  RH WIND       PRES   REMARKS
CARROLL *      MOCLDY    54  45  71 SE7       30.10R
CHEROKEE *     CLEAR     59  43  55 SE13      30.05R
DENISON *      PTCLDY    57  43  58 SE9G16    30.06R
LE MARS *      CLEAR     61  43  51 SE8G15    30.02S
ORANGE CITY *  CLEAR     63  41  45 SE9       30.03S
SHELDON *      CLEAR     59  43  55 SE12G18   30.03R
SIOUX CITY     CLEAR     63  42  46 SE8       30.02R
SPENCER        CLEAR     57  42  57 SE15      30.07R
STORM LAKE *   CLEAR     57  43  58 SE14      30.09R
$$

IAZ055>058-069>071-079>083-090>094-220200-
   SOUTHWEST IOWA

CITY           SKY/WX    TMP DP  RH WIND       PRES   REMARKS
ATLANTIC *     CLEAR     59  43  55 E8        30.08R
AUDUBON *      CLEAR     55  43  62 SE5       30.10R
CLARINDA *     CLEAR     61  43  51 SE7       30.09S
COUNCIL BLFS * CLEAR     59  41  51 SE8       30.05R
CRESTON *      CLEAR     52  45  76 E8        30.11R
HARLAN  *      CLEAR     57  41  54 E7        30.10S
LAMONI         CLEAR     57  45  64 E7        30.12R
RED OAK *      CLEAR     61  41  48 SE7       30.07S
SHENANDOAH *   CLEAR     55  43  62 SE7       30.07S
$$

IAZ047>049-059>061-072>074-084-220200-
   CENTRAL IOWA

CITY           SKY/WX    TMP DP  RH WIND       PRES   REMARKS
AMES           CLEAR     51  40  65 SE5       30.14R
ANKENY *       CLEAR     55  43  62 SE9       30.13S
CHARITON *     CLEAR     54  45  71 E7        30.14R
DES MOINES       N/A     59  42  53 E10       30.13S
GRINNELL*      CLEAR     50  41  71 E8        30.17S
KNOXVILLE *    CLEAR     54  41  62 E6        30.14R
MARSHALLTOWN   CLEAR     46  39  76 E8        30.16R
PELLA *        CLEAR     54  41  62 E7        30.16S
PERRY *          N/A     52  43  71 SE7       30.11S
$$

IAZ004>006-015-016-023>025-035-036-220200-
   NORTH CENTRAL IOWA

CITY           SKY/WX    TMP DP  RH WIND       PRES   REMARKS
ALGONA *       CLEAR     54  41  62 SE9       30.12R
CLARION *      CLEAR     52  41  66 SE9       30.14R
ESTHERVILLE    CLEAR     53  41  63 SE14      30.09R
FORT DODGE *   CLEAR     48  37  66 E8        30.13R
MASON CITY     CLEAR     49  40  71 SE9       30.17R
FOREST CITY *  CLEAR     50  41  71 SE7       30.14S
IOWA FALLS *     N/A     46  39  76 E6        30.17R
$$

IAZ007>011-017>019-026>030-037>042-050>054-066-220200-
   NORTHEAST IOWA

CITY           SKY/WX    TMP DP  RH WIND       PRES   REMARKS
CEDAR RAPIDS   CLEAR     46  37  71 E7        30.19R
CHARLES CITY * CLEAR     48  39  71 SE8       30.19R
CLINTON *      CLEAR     39  36  87 NE8       30.25R WCI  34
DECORAH *      CLEAR     45  37  76 SE6       30.20R
DUBUQUE        CLEAR     43  37  79 E8        30.23R
MONTICELLO *   CLEAR     48  39  71 E8        30.21R
OELWEIN *      CLEAR     48  39  71 E8        30.20R
WATERLOO       CLEAR     45  37  73 E9        30.18R
$$

IAZ064-065-067-068-078-220200-
   EAST CENTRAL IOWA

CITY           SKY/WX    TMP DP  RH WIND       PRES   REMARKS
DAVENPORT      CLEAR     46  36  68 E9        30.22R
IOWA CITY      CLEAR     51  38  60 E5        30.21R
MT. PLEASANT * CLEAR     45  37  76 E6        30.19R
MUSCATINE *    CLEAR     52  39  62 E6        30.21R
QUAD CITIES    CLEAR     42  36  79 E6        30.21R
$$

IAZ062-063-075>077-085>089-095>099-220200-
   SOUTHEAST IOWA

CITY           SKY/WX    TMP DP  RH WIND       PRES   REMARKS
BURLINGTON     CLEAR     51  39  63 E5        30.19R
FAIRFIELD *    CLEAR     48  39  71 E7        30.18R
FORT MADISON * CLEAR     52  43  71 E5        30.19S HAZE
KEOKUK *       CLEAR     52  41  66 E6        30.17R
OSKALOOSA *      N/A     50  41  71 E7        30.17S
CENTERVILLE *  CLEAR     50  43  76 E5        30.16S
WASHINGTON *   CLEAR     45  39  81 E7        30.19R HAZE
$$

ABBREVIATIONS USED IN REMARKS
   TC - TEMPERATURES IN CELSIUS
  WCI - WIND CHILL INDEX
   HX - HEAT INDEX
  VSB - VISIBILITY
$$




USA.gov is the U.S. government's official web portal to all federal, state and local government web resources and services.